International Virtual Aviation Organisation

Russian Federation and Kazakhstan MCD

 

Карточка аэропорта UMKK

Внимание!
Информация на этой странице в стадии наполнения.
Если вы не увидели какой-то информации, или заметили неточность - пожалуйста сообщите нам!
Спасибо!
Команда RU-STAFF
Название аэропортаХраброво
Название аэропорта (англ.)Khrabrovo
Превышение43 ft. (13.1 m.)
Координаты54°53.4', 20°35.55'
Высота перехода1000m
Эшелон переходаQFE>=742mm:FL050; QFE<742:FL060
Коды ответчика6620-6637
Зона ОрВДКалининград РПИ (UMKK)
Данные METARUMKK 271600Z 32007MPS 9999 BKN029 06/01 Q1016 R24/19//95 NOSIG RMK QFE761/1015
Проноз погоды (TAF)UMKK 271400Z 2715/2815 31006G11MPS 9999 BKN025 TEMPO 2715/2718 34008G14MPS -SHRA FEW011 BKN016CB TEMPO 2718/2723 01008G16MPS 2100 -SHRAGS SCT002 BKN010CB BECMG 2723/2724 02003G10MPS BKN016 TEMPO 2800/2812 -SHRA FEW006 BKN012CB BECMG 2812/2814 02006G12MPS
NOTAMshow/hide NOTAM
AWOS   TABLE

Информация о ВПП

ВПП Длина ВПП (м.) Покрытие Курс ВПП Частота ILS
063350Асфальтобетон60110.3
243350Асфальтобетон240109.5

Диспетчерские позиции

Позывной Наименование органа УВД Частота
UMKK_APPКалининград-Подход126.0
UMKK_TWRКалининград-Вышка127.2



Спутниковое изображение